Maple Lake, MN

11:19 AM CST on February 20, 2017 (GMT -0600)
Maple Lake Municipal

Weather History for KMGG - January, 2013

Change the Weather History Date:

Wednesday, January 9, 2013

  Actual Average (KSTC) Record (KSTC)
Temperature  
Mean Temperature 26 °F -  
Max Temperature 33 °F 15 °F 49 °F (2012)
Min Temperature 20 °F -5 °F -43 °F (1977)
Degree Days  
Heating Degree Days 38    
Moisture  
Dew Point 22 °F    
Average Humidity 79    
Maximum Humidity 95    
Minimum Humidity 65    
Precipitation  
Precipitation 0.00 in - - ()
Sea Level Pressure  
Sea Level Pressure 30.16 in    
Wind  
Wind Speed 11 mph (WSW)    
Max Wind Speed 23 mph    
Max Gust Speed 34 mph    
Visibility 10 miles    
Events Snow    
Averages and records for this station are not official NWS values.
T = Trace of Precipitation, MM = Missing Value Source: NWS Daily Summary

Daily Weather History Graph

Daily Weather History Graph

Search for Another Location

Airport or City:

Trip Planner

Search our weather history database for the weather conditions in past years. The results will help you decide how hot, cold, wet, or windy it might be!

Date:

Astronomy

Jan. 09, 2013 Rise Set
Actual Time 7:53 AM CST 4:52 PM CST
Civil Twilight 7:20 AM CST 5:26 PM CST
Nautical Twilight 6:43 AM CST 6:03 PM CST
Astronomical Twilight 6:08 AM CST 6:38 PM CST
Moon 5:34 AM CST (1/9) 2:55 PM CST (1/9)
Length of Visible Light 10h 05m
Length of Day
8h 58m
Waning Crescent, 6% of the Moon is Illuminated
Jan 9
Waning Crescent
Jan 11
New
Jan 18
First Quarter
Jan 26
Full
Feb 3
Last Quarter

Hourly Weather History & Observations

Time (CST) Temp. Windchill Dew Point Humidity Pressure Visibility Wind Dir Wind Speed Gust Speed Precip Events Conditions
12:15 AM 30.7 °F 22.0 °F 26.8 °F 85% 29.89 in 10.0 mi WSW 10.4 mph 16.1 mph N/A   Scattered Clouds
12:35 AM 31.3 °F 22.1 °F 27.1 °F 85% 29.90 in 10.0 mi WSW 11.5 mph - N/A   Overcast
12:55 AM 32.0 °F 25.6 °F 27.1 °F 82% 29.89 in 10.0 mi West 6.9 mph - N/A   Mostly Cloudy
1:14 AM 32.0 °F 24.2 °F 27.0 °F 82% 29.88 in 10.0 mi WSW 9.2 mph - N/A   Scattered Clouds
1:35 AM 32.0 °F 24.2 °F 27.3 °F 83% 29.89 in 10.0 mi WSW 9.2 mph - N/A   Clear
1:55 AM 30.9 °F 22.8 °F 27.0 °F 85% 29.90 in 10.0 mi WSW 9.2 mph - N/A   Clear
2:15 AM 31.3 °F 22.7 °F 27.5 °F 86% 29.90 in 10.0 mi WSW 10.4 mph 16.1 mph N/A   Clear
2:35 AM 31.1 °F 23.1 °F 27.5 °F 87% 29.91 in 10.0 mi WSW 9.2 mph 16.1 mph N/A   Clear
2:55 AM 31.5 °F 22.9 °F 27.5 °F 85% 29.92 in 10.0 mi WSW 10.4 mph - N/A   Clear
3:15 AM 32.0 °F 22.5 °F 27.5 °F 83% 29.92 in 10.0 mi WSW 12.7 mph 19.6 mph N/A   Clear
3:35 AM 32.5 °F 21.9 °F 27.3 °F 81% 29.93 in 10.0 mi WSW 16.1 mph 21.9 mph N/A   Clear
3:55 AM 32.9 °F 22.4 °F 27.1 °F 79% 29.94 in 10.0 mi WSW 16.1 mph 25.3 mph N/A   Clear
4:15 AM 32.4 °F 20.9 °F 26.2 °F 78% 29.94 in 10.0 mi West 18.4 mph 21.9 mph N/A   Clear
4:35 AM 33.1 °F 23.4 °F 26.1 °F 75% 29.96 in 10.0 mi West 13.8 mph 27.6 mph N/A   Mostly Cloudy
4:55 AM 32.5 °F 21.9 °F 26.4 °F 78% 29.97 in 10.0 mi West 16.1 mph 23.0 mph N/A   Mostly Cloudy
5:15 AM 32.0 °F 21.2 °F 25.7 °F 78% 29.98 in 10.0 mi West 16.1 mph 27.6 mph N/A   Scattered Clouds
5:35 AM 32.0 °F 19.8 °F 25.2 °F 76% 30.00 in 10.0 mi West 20.7 mph 27.6 mph N/A   Clear
5:55 AM 31.8 °F 19.0 °F 24.3 °F 74% 30.01 in 10.0 mi West 23.0 mph 34.5 mph N/A   Clear
6:15 AM 31.3 °F 19.5 °F 23.9 °F 74% 30.03 in 10.0 mi West 18.4 mph 27.6 mph N/A   Clear
6:35 AM 30.9 °F 19.4 °F 23.4 °F 74% 30.04 in 10.0 mi West 17.3 mph 28.8 mph N/A   Clear
6:55 AM 30.4 °F 18.7 °F 22.8 °F 73% 30.05 in 10.0 mi West 17.3 mph 27.6 mph N/A   Clear
7:15 AM 29.8 °F 17.3 °F 22.3 °F 73% 30.07 in 10.0 mi West 19.6 mph 27.6 mph N/A   Clear
7:35 AM 29.3 °F 17.7 °F 22.1 °F 75% 30.08 in 10.0 mi West 16.1 mph 26.5 mph N/A   Clear
7:55 AM 28.8 °F 16.6 °F 21.7 °F 75% 30.09 in 10.0 mi WNW 17.3 mph 24.2 mph N/A   Clear
8:15 AM 28.4 °F 15.4 °F 21.6 °F 76% 30.10 in 10.0 mi WNW 19.6 mph 25.3 mph N/A   Clear
8:35 AM 28.4 °F 17.0 °F 21.6 °F 76% 30.12 in 10.0 mi WNW 15.0 mph 23.0 mph N/A   Clear
8:55 AM 28.0 °F 14.9 °F 21.0 °F 75% 30.13 in 10.0 mi WNW 19.6 mph 28.8 mph N/A   Clear
9:15 AM 28.2 °F 15.5 °F 20.5 °F 73% 30.14 in 10.0 mi WNW 18.4 mph 26.5 mph N/A Snow Light Snow
9:35 AM 28.2 °F 16.3 °F 20.5 °F 73% 30.14 in 10.0 mi WNW 16.1 mph 25.3 mph N/A   Clear
9:55 AM 28.4 °F 17.0 °F 20.3 °F 72% 30.16 in 10.0 mi WNW 15.0 mph 24.2 mph N/A   Clear
10:15 AM 28.4 °F 17.0 °F 20.5 °F 72% 30.16 in 10.0 mi NW 15.0 mph 23.0 mph N/A   Clear
10:35 AM 28.4 °F 18.5 °F 20.5 °F 72% 30.16 in 10.0 mi WNW 11.5 mph 18.4 mph N/A   Clear
11:15 AM 28.8 °F 19.0 °F 20.3 °F 71% 30.17 in 10.0 mi WNW 11.5 mph - N/A   Clear
11:35 AM 29.3 °F 20.2 °F 20.3 °F 69% 30.19 in 10.0 mi West 10.4 mph - N/A   Clear
11:55 AM 30.0 °F 21.7 °F 20.3 °F 67% 30.21 in 10.0 mi West 9.2 mph - N/A   Clear
12:15 PM 30.2 °F 20.2 °F 21.0 °F 69% 30.24 in 10.0 mi WSW 12.7 mph - N/A   Clear
12:35 PM 30.2 °F 19.8 °F 21.0 °F 69% 30.25 in 10.0 mi WSW 13.8 mph - N/A   Clear
12:55 PM 30.6 °F 21.2 °F 21.2 °F 68% 30.26 in 10.0 mi WSW 11.5 mph - N/A   Clear
1:14 PM 30.7 °F 22.0 °F 21.0 °F 67% 30.27 in 10.0 mi WSW 10.4 mph - N/A   Clear
1:34 PM 31.6 °F 23.7 °F 21.2 °F 65% 30.27 in 10.0 mi WSW 9.2 mph - N/A   Clear
1:55 PM 31.8 °F 24.6 °F 21.7 °F 66% 30.27 in 10.0 mi WSW 8.1 mph - N/A   Clear
2:15 PM 31.6 °F 23.1 °F 21.7 °F 67% 30.29 in 10.0 mi WSW 10.4 mph - N/A   Clear
2:35 PM 31.1 °F 22.4 °F 21.7 °F 68% 30.30 in 10.0 mi SW 10.4 mph - N/A   Clear
2:55 PM 30.7 °F 22.0 °F 21.6 °F 69% 30.32 in 10.0 mi WSW 10.4 mph - N/A   Clear
3:15 PM 30.7 °F 24.1 °F 21.6 °F 69% 30.33 in 10.0 mi WSW 6.9 mph - N/A   Clear
3:35 PM 30.6 °F 24.7 °F 21.4 °F 69% 30.32 in 10.0 mi WSW 5.8 mph - N/A   Clear
3:55 PM 30.2 °F 22.6 °F 21.7 °F 71% 30.33 in 10.0 mi SW 8.1 mph - N/A   Clear
4:15 PM 29.3 °F 24.3 °F 21.4 °F 72% 30.33 in 10.0 mi SW 4.6 mph - N/A   Clear
4:35 PM 28.4 °F 23.3 °F 21.0 °F 74% 30.33 in 10.0 mi SW 4.6 mph - N/A   Clear
4:55 PM 27.7 °F 23.8 °F 21.0 °F 76% 30.33 in 10.0 mi SW 3.5 mph - N/A   Clear
5:15 PM 27.3 °F 23.4 °F 21.2 °F 78% 30.32 in 10.0 mi South 3.5 mph - N/A   Clear
5:35 PM 25.9 °F - 20.7 °F 81% 30.31 in 10.0 mi Calm Calm - N/A   Clear
5:55 PM 21.9 °F - 18.1 °F 85% 30.31 in 10.0 mi Calm Calm - N/A   Clear
6:15 PM 22.6 °F 18.0 °F 19.0 °F 86% 30.28 in 10.0 mi ESE 3.5 mph - N/A   Clear
6:35 PM 21.4 °F - 18.7 °F 89% 30.29 in 10.0 mi Calm Calm - N/A   Clear
6:55 PM 20.7 °F 15.8 °F 18.5 °F 91% 30.30 in 10.0 mi SE 3.5 mph - N/A   Clear
7:15 PM 21.2 °F - 19.0 °F 91% 30.29 in 10.0 mi Calm Calm - N/A   Clear
7:35 PM 20.1 °F 15.2 °F 18.7 °F 94% 30.29 in 10.0 mi SSE 3.5 mph - N/A   Clear
7:55 PM 21.2 °F 16.4 °F 19.4 °F 93% 30.29 in 10.0 mi SSE 3.5 mph - N/A   Clear
8:15 PM 22.5 °F 16.3 °F 19.9 °F 90% 30.29 in 10.0 mi SSE 4.6 mph - N/A   Clear
8:35 PM 22.5 °F 17.8 °F 19.8 °F 89% 30.28 in 10.0 mi SSE 3.5 mph - N/A   Clear
8:55 PM 21.9 °F 15.7 °F 19.4 °F 90% 30.28 in 10.0 mi SSE 4.6 mph - N/A   Clear
9:15 PM 22.3 °F 16.1 °F 20.1 °F 91% 30.28 in 10.0 mi SSE 4.6 mph - N/A   Clear
9:35 PM 21.9 °F 15.7 °F 19.6 °F 91% 30.28 in 10.0 mi SSE 4.6 mph - N/A   Clear
9:55 PM 21.0 °F 14.6 °F 19.4 °F 93% 30.27 in 10.0 mi SSE 4.6 mph - N/A   Clear
10:15 PM 20.8 °F 14.4 °F 19.2 °F 93% 30.25 in 10.0 mi SE 4.6 mph - N/A   Clear
10:35 PM 20.3 °F 12.5 °F 19.0 °F 95% 30.25 in 10.0 mi SSE 5.8 mph - N/A   Clear
10:55 PM 21.7 °F 14.3 °F 20.1 °F 93% 30.25 in 10.0 mi SSE 5.8 mph - N/A   Clear
11:15 PM 24.3 °F 14.6 °F 21.7 °F 90% 30.25 in 10.0 mi SSE 9.2 mph - N/A   Clear
11:35 PM 24.4 °F 16.5 °F 21.6 °F 89% 30.25 in 10.0 mi SSE 6.9 mph - N/A   Clear
11:55 PM 23.9 °F 15.8 °F 21.4 °F 90% 30.25 in 10.0 mi SSE 6.9 mph - N/A   Clear